Regional Weather Roundup
Issued by NWS

Home | Current Version | Previous Version | Graphics & Text | Print | Product List | Glossary On
Versions: 1 2 3 4 5 6 7 8 9 10 11 12 13 14 15 16 17 18 19 20 21 22 23 24 25 26 27 28 29 30 31 32 33 34 35 36 37 38 39 40 41 42 43 44 45 46 47 48 49 50
000
ASUS43 KLSX 240207
RWRMO

WEATHER SUMMARY FOR MISSOURI
NATIONAL WEATHER SERVICE SPRINGFIELD MO
900 PM CDT TUE MAY 23 2017

NOTE: "FAIR" INDICATES FEW OR NO CLOUDS BELOW 12,000 FEET WITH NO
       SIGNIFICANT WEATHER AND/OR OBSTRUCTIONS TO VISIBILITY.
       CURRENT SKY AND/OR WEATHER CONDITIONS ARE NOT AVAILABLE FOR
       CHILLICOTHE AND FARMINGTON.

MOZ001>031-035>038-043-044-053-054-240300-
...NORTHERN AND WESTERN MISSOURI...

CITY           SKY/WX    TMP DP  RH WIND       PRES   REMARKS
KANSAS CTY INT CLOUDY    56  47  71 NW7       29.80S
KANSAS C DTWN  CLOUDY    56  53  90 CALM      29.79F
LEE`S SUMMIT   CLOUDY    53  52  96 W5        29.79F
ST JOSEPH      CLOUDY    56  49  77 NW10      29.80S
CHILLICOTHE      N/A     56  46  69 NW6       29.78S
KIRKSVILLE     CLOUDY    53  46  77 NW6       29.75F

$$
MOZ066>068-077>081-088>096-101>105-240300-
...SOUTHWEST MISSOURI...

CITY           SKY/WX    TMP DP  RH WIND       PRES   REMARKS
SPRINGFIELD    PTCLDY    60  48  64 W5        29.76R
JOPLIN         CLOUDY    60  48  64 NW8       29.80R
BRANSON        PTCLDY    57  50  77 CALM      29.78R

$$
MOZ032>034-039>042-045>050-055>058-069>072-240300-
...CENTRAL MISSOURI...

CITY           SKY/WX    TMP DP  RH WIND       PRES   REMARKS
COLUMBIA       PTCLDY    59  49  69 NW9       29.74S
JEFFERSON CITY CLEAR     61  51  70 NW3       29.73S
SEDALIA        PTCLDY    59  49  69 NW6       29.77S
WHITEMAN AFB   CLOUDY    59  49  69 NW6       29.76S
WARRENSBURG    DRIZZLE   54  48  82 W9        29.78R
OSAGE BEACH    CLEAR     56  49  77 VRB3      29.76

$$
MOZ051-052-059>065-240300-
...EAST CENTRAL MISSOURI...

CITY           SKY/WX    TMP DP  RH WIND       PRES   REMARKS
ST LOUIS INTL  MOCLDY    63  56  78 NW5       29.71S
SPIRIT OF STL  CLOUDY    60  59  96 CALM      29.70S
ST CHARLES     CLOUDY    61  58  90 CALM      29.70S

$$
MOZ072>076-082>087-097>100-106>115-240300-
...SOUTH CENTRAL AND SOUTHEAST MISSOURI...

CITY           SKY/WX    TMP DP  RH WIND       PRES   REMARKS
CAPE GIRARDEAU CLOUDY    65  58  78 N7        29.68R
FARMINGTON     CLOUDY    60  53  77 N5        29.72S
POPLAR BLUFF   CLOUDY    61  58  90 NW10      29.70R
WEST PLAINS    CLOUDY    60  52  74 NW5       29.75F

$$



USA.gov is the U.S. government's official web portal to all federal, state and local government web resources and services.